Location: Sigmaringen
(48.0900°N, 9.2120°E)
Time: 14:10:08
(UTC+01:00)

Envisat - Visible Passes

Search period start: 23 November 2017 00:00
Search period end: 03 December 2017 00:00
Orbit: 764 x 766 km, 98.2° (Epoch: 23 November)

Date Brightness Start Highest point End Pass type
(mag) Time Alt. Az. Time Alt. Az. Time Alt. Az.
23 Nov 5.1 19:01:51 13° N 19:01:51 13° N 19:02:27 10° N visible
24 Nov 5.2 18:24:47 10° NNE 18:24:47 10° NNE 18:24:47 10° NNE visible
24 Nov 5.5 20:04:59 12° NNW 20:04:59 12° NNW 20:05:17 10° NNW visible
25 Nov 5.3 19:27:54 13° N 19:27:54 13° N 19:28:23 10° N visible
26 Nov 5.2 18:50:50 11° N 18:50:50 11° N 18:51:08 10° N visible
27 Nov 5.5 19:53:57 11° N 19:53:57 11° N 19:54:08 10° N visible
28 Nov 5.3 19:16:53 11° N 19:16:53 11° N 19:17:09 10° N visible
30 Nov 5.5 19:42:55 10° N 19:42:55 10° N 19:42:58 10° N visible
01 Dec 5.3 19:05:48 10° N 19:05:48 10° N 19:05:53 10° N visible
